Regional Weather Roundup
Issued by NWS

Home | Current Version | Previous Version | Text Only | Print | Product List | Glossary Off
Versions: 1 2 3 4 5 6 7 8 9 10 11 12 13 14 15 16 17 18 19 20 21 22 23 24 25 26 27 28 29 30 31 32 33 34 35 36 37 38 39 40 41 42 43 44 45 46 47 48 49 50

000
ASUS43 KOAX 300402
RWRNE

WEATHER ROUNDUP FOR NEBRASKA
NATIONAL WEATHER SERVICE OMAHA NE
1100 PM CDT SUN MAY 29 2016

NOTES: SATELLITE DATA IS BEING USED TO AUGMENT CLOUD COVER ABOVE
       12000 FEET.
       "FAIR" INDICATES FEW OR NO CLOUDS BELOW 12,000 FEET WITH NO
       SIGNIFICANT WEATHER AND/OR OBSTRUCTIONS TO VISIBILITY.

  * THESE STATIONS DO NOT REPORT WEATHER SUCH AS RAIN...SNOW OR FOG.

NEZ001>004-019>022-054>056-300500-
NEBRASKA PANHANDLE

CITY           SKY/WX    TMP DP  RH WIND       PRES   REMARKS
SCOTTSBLUFF    CLOUDY    60  43  53 N5        30.01F
ALLIANCE       CLOUDY    58  51  78 S3        30.00S
CHADRON        CLEAR     58  51  78 W3        29.97F
SIDNEY         CLOUDY    60  52  74 S14       30.06R
$$

NEZ057>060-069>072-079>082-300500-
SOUTHWEST NEBRASKA

CITY           SKY/WX    TMP DP  RH WIND       PRES   REMARKS
NORTH PLATTE   CLOUDY    63  51  65 SE10      30.05F
IMPERIAL       CLOUDY    65  47  52 S26G37    30.04R
LEXINGTON      CLOUDY    67  53  59 S9        30.05F
MCCOOK         CLOUDY    67  50  54 VRB6      30.05R
$$

NEZ005>010-023>029-035>040-094-300500-
NORTH CENTRAL NEBRASKA

CITY           SKY/WX    TMP DP  RH WIND       PRES   REMARKS
VALENTINE      CLOUDY    68  56  65 SE13G20   29.99S
AINSWORTH      CLOUDY    70  56  62 CALM      30.04R
BROKEN BOW     CLOUDY    64  57  78 NE8       30.04S
ORD            TSTM      69  59  70 S10G18    30.00R
$$

NEZ041-046>049-061>064-073>077-083>087-300500-
SOUTH CENTRAL NEBRASKA

CITY           SKY/WX    TMP DP  RH WIND       PRES   REMARKS
GRAND ISLAND   CLOUDY    70  55  59 S16G28    30.03S
AURORA         CLOUDY    67  57  70 SW21      30.05R
HASTINGS       LGT RAIN  66  59  78 S13       30.07R
KEARNEY *      CLOUDY    68  55  64 S12       30.07R
YORK           CLOUDY    66  54  63 W5        30.03R
$$

NEZ011>018-030>034-042>045-300500-
NORTHEAST NEBRASKA

CITY           SKY/WX    TMP DP  RH WIND       PRES   REMARKS
NORFOLK        CLOUDY    67  58  72 S9        30.02R
ALBION         CLOUDY    69  58  67 S5        30.03S
BLAIR          CLOUDY    73  60  63 SE3       30.02S
FREMONT        CLOUDY    73  60  65 SE3       30.02R
TEKAMAH          N/A    N/A N/A N/A MISG      30.00S
$$

NEZ050>053-065>068-078-088>093-300500-
SOUTHEAST NEBRASKA

CITY           SKY/WX    TMP DP  RH WIND       PRES   REMARKS
LINCOLN        CLOUDY    71  62  73 CALM      30.01R
OMAHA EPPLEY   CLOUDY    73  61  65 SE6       30.01R
BEATRICE       CLOUDY    72  58  62 SW15      30.01F
FALLS CITY     CLOUDY    72  63  73 S7        30.03R
NEBRASKA CITY  CLOUDY    72  60  66 S7        30.03R
PLATTSMOUTH    CLOUDY    75  60  58 S8        30.02S
$$

NEZ044-045-051>053-067-300500-
OMAHA AREA

CITY           SKY/WX    TMP DP  RH WIND       PRES   REMARKS
OMAHA EPPLEY   CLOUDY    73  61  65 SE6       30.01R
BLAIR          CLOUDY    73  60  63 SE3       30.02S
FREMONT        CLOUDY    73  60  65 SE3       30.02R
OFFUTT AFB     CLOUDY    71  64  78 SE3       30.01R
PLATTSMOUTH    CLOUDY    75  60  58 S8        30.02S
WAHOO          FAIR      72  63  73 CALM      30.01R
$$



USA.gov is the U.S. government's official web portal to all federal, state and local government web resources and services.